Regional Weather Roundup
Issued by NWS

Home | Current Version | Previous Version | Text Only | Print | Product List | Glossary Off
Versions: 1 2 3 4 5 6 7 8 9 10 11 12 13 14 15 16 17 18 19 20 21 22 23 24 25 26 27 28 29 30 31 32 33 34 35 36 37 38 39 40 41 42 43 44 45 46 47 48 49 50

126
ASUS45 KBOU 010810
RWRCO

WEATHER ROUNDUP FOR COLORADO
NATIONAL WEATHER SERVICE DENVER/BOULDER CO
200 AM MDT SAT OCT 01 2016

NOTE: "FAIR" INDICATES FEW OR NO CLOUDS BELOW 12000 FEET WITH NO
SIGNIFICANT WEATHER AND/OR OBSTRUCTIONS TO VISIBILITY.

COZ001>005-013-030-031-010900-
...NORTHWEST COLORADO...

CITY           SKY/WX    TMP DP  RH WIND       PRES   REMARKS
CRAIG          FAIR      42  39  89 CALM      30.27R
HAYDEN         FAIR      46  39  76 E8        30.28S
MEEKER         FAIR      45  41  86 E5        30.28S
MOUNT WERNER   NOT AVBL
STEAMBOAT SPGS FAIR      43  41  93 CALM      30.30S
WALDEN           N/A     36  34  93 SE6       30.36S
$$

COZ006>008-011-010900-
...WEST CENTRAL VALLEYS...

CITY           SKY/WX    TMP DP  RH WIND       PRES   REMARKS
GRAND JUNCTION FAIR      53  48  83 SE7       30.19R
MONTROSE       FAIR      49  42  77 SE7       30.26S
EAGLE          FAIR      43  39  87 NE3       30.32S
RIFLE          FAIR      49  45  86 E3        30.25R
DELTA          NOT AVBL
NUCLA          FAIR      46  43  87 E8        30.29S
$$

COZ017>023-064>068-010900-
...SOUTHWEST COLORADO...

CITY           SKY/WX    TMP DP  RH WIND       PRES   REMARKS
DURANGO        FAIR      43  38  82 NE5       30.28S
CORTEZ         FAIR      44  41  89 E6        30.25S
PAGOSA SPRINGS FAIR      42  39  90 W3        30.34S
TELLURIDE      FAIR      41  39  90 SE5       30.42S
WOLF CREEK PAS FAIR      36  34  93 MISG      30.56S
$$

COZ009-010-012-014-032>034-037-058>063-010900-
...CENTRAL COLORADO...

CITY           SKY/WX    TMP DP  RH WIND       PRES   REMARKS
ASPEN          FAIR      44  39  82 CALM      30.33F
BUENA VISTA    FAIR      44  40  86 W3        30.35F
COPPER MTN     FAIR      41  32  70 CALM      30.54S
BERTHOUD PASS  FAIR      32  23  69 NW9       30.56S WCI  24
COTTONWOOD PAS FAIR      46  37  71 SW10      30.43F
GUNNISON       FAIR      39  36  87 CALM      30.36S
KREMMLING      FAIR      36  34  93 CALM      30.36S
LEADVILLE      MOCLDY    38  33  82 CALM      30.43F
MONARCH PASS   FOG       36  36 100 E5        30.64S VSB<1/4
SALIDA         FAIR      49  45  85 W6        30.40F
SUNLIGHT       FAIR      43  37  81 CALM      30.51S
WILKERSON PASS FAIR      37  34  87 W5        30.53S
$$

COZ069>075-010900-
...SAN LUIS VALLEY/SANGRE DE CRISTO MOUNTAINS...

CITY           SKY/WX    TMP DP  RH WIND       PRES   REMARKS
ALAMOSA        FAIR      45  42  89 W7        30.32R
LA VETA PASS   FAIR      45  36  70 MISG      30.45F
SAGUACHE       FAIR      45  37  76 NW9       30.34S
$$

COZ035-036-038>040-010900-
...NORTHERN COLORADO FRONT RANGE...

CITY           SKY/WX    TMP DP  RH WIND       PRES   REMARKS
DENVER INTL AP FAIR      56  45  66 SW12      30.16F
DMNS CITY PARK   N/A     54  46  74 S6        30.17S
AURORA         PTCLDY    53  46  76 SW8       30.18F
FRONT RANGE AP FAIR      59  46  63 SW8       30.18S
ERIE MUNI ARPT FAIR      47  43  86 CALM      30.16S
BOULDER MUN AP FAIR      54  45  71 CALM      30.17R
CENTENNIAL     FAIR      52  44  74 SW3       30.19F
BROOMFIELD     FAIR      54  41  62 CALM      30.19S
FORT COLLINS   FAIR      54  46  76 N3        30.16S
LONGMONT       FAIR      50  44  78 W5        30.18S
$$

COZ041-046-047-076>085-087-088-010900-
...PIKES PEAK/PALMER DIVIDE AND SOUTHERN FOOTHILLS...

CITY           SKY/WX    TMP DP  RH WIND       PRES   REMARKS
COLO. SPRINGS  MOCLDY    55  47  74 NW7       30.24S
A. F. ACADEMY  FAIR      51  46  82 W7        30.24R
SCHRIEVER AFB  NOT AVBL
ELLICOTT       NOT AVBL
FALCON         FAIR      53  42  65 W6        30.26S
FORT CARSON    NOT AVBL
LIMON          MOCLDY    42  37  82 N5        30.19S
MONUMENT HILL  FAIR      43  41  93 SW7       30.28R
TRINIDAD       FAIR      52  47  83 W9        30.21F
$$

COZ042>045-048>051-090-091-010900-
...NORTHEAST COLORADO...

CITY           SKY/WX    TMP DP  RH WIND       PRES   REMARKS
GREELEY ARPT   FAIR     N/A N/A N/A N8        30.15S
AKRON          FAIR      52  44  74 S8        30.15S
BURLINGTON     FAIR      51  44  77 S9        30.15S
WRAY           MOCLDY    52  45  76 CALM      30.14
STERLING       FAIR      50  45  81 SW3       30.12S
HOLYOKE        FAIR      54  45  71 SE6       30.14S
FORT MORGAN    FAIR      50  43  77 CALM      30.14F
$$

COZ086-089-092>099-010900-
...SOUTHEAST COLORADO...

CITY           SKY/WX    TMP DP  RH WIND       PRES   REMARKS
PUEBLO         MOCLDY    61  50  67 W9        30.14F
LA JUNTA       FAIR      58  47  66 NW5       30.12S
LAMAR          FAIR      50  45  83 E6        30.09S
SPRINGFIELD      N/A     50  46  86 CALM      30.10F
$$




USA.gov is the U.S. government's official web portal to all federal, state and local government web resources and services.